Location: Brunembert
(50.7122°N, 1.8935°E)
Time: 03:03:57
(UTC+00:00)

Cosmos 407 Rocket - Pass Details

Date: 22 April 2021
Orbit: 743 x 787 km, 74.0° (Epoch: 06 May)

Event Time Altitude Azimuth Distance (km) Brightness Sun altitude
Rises 20:00:13 0° 187° (S) 3,175 6.4 -9.4°
Reaches altitude 10° 20:02:36 10° 182° (S) 2,259 5.6 -9.7°
Maximum altitude 20:07:32 52° 107° (ESE) 936 3.6 -10.4°
Drops below altitude 10° 20:12:34 10° 32° (NNE) 2,297 6.0 -11.0°
Sets 20:15:00 0° 28° (NNE) 3,234 6.9 -11.3°
